Theta_e
311 308 309 308 308 309 310 311 311 310 310 311 311 310 310 308 309 306 304 304 303 302 302 303 304 305 307 308 310 312 314 315 316 318 320 321 322 322 323 322 321 321 321 321
310 310 310 309 309 310 310 311 310 310 310 311 310 309 306 306 305 304 303 302 301 301 302 302 303 304 305 306 307 308 309 309 310 311 312 313 316 319 319 319 319 318 318 317
310 312 311 311 313 313 312 312 312 313 309 309 309 309 309 305 304 302 301 300 300 300 300 301 302 302 303 304 304 305 305 306 307 308 310 311 313 313 314 315 316 316 315 314
311 311 312 312 313 312 313 311 311 311 310 310 308 312 309 307 304 302 300 300 300 300 301 301 303 304 304 303 303 304 304 304 304 305 305 307 308 308 307 306 307 307 307 306
314 311 311 312 312 310 312 310 311 310 309 309 308 309 308 306 306 302 300 299 300 300 301 302 302 302 302 303 303 303 304 305 304 304 304 303 303 302 302 303 304 304 304 304
310 310 309 310 310 309 308 309 308 306 306 310 308 310 311 308 307 302 300 299 300 299 300 300 300 301 301 301 301 301 301 301 301 302 302 303 302 301 302 302 301 301 301 301
312 310 309 310 312 308 308 309 312 313 310 313 312 310 311 305 305 302 299 299 298 299 299 299 300 301 301 301 301 301 300 300 299 299 299 298 298 298 299 299 299 299 298 298
315 317 310 309 312 313 308 309 311 310 313 312 311 315 312 302 301 301 300 299 299 299 299 300 302 301 301 300 299 299 298 297 295 294 294 293 293 293 291 291 291 291 292 292
314 315 308 308 307 309 310 311 309 310 309 314 312 308 305 302 299 299 298 299 300 299 300 301 300 299 297 296 294 293 292 293 293 292 291 290 290 289 289 289 288 287 288 288
313 314 312 309 309 307 309 308 311 308 307 312 311 311 310 304 301 298 297 299 300 301 301 300 298 297 296 294 292 291 291 290 289 289 289 289 288 288 288 288 288 287 287 287
311 311 311 310 311 310 306 308 308 311 308 306 305 309 306 305 301 299 298 301 302 303 301 299 297 295 293 291 290 290 290 290 290 290 289 289 289 288 288 288 288 288 288 288
311 310 307 310 308 307 308 307 307 311 309 306 309 310 305 304 301 300 301 303 303 301 299 297 296 294 293 290 289 289 289 289 289 289 289 288 288 288 288 288 288 288 288 288
310 307 301 305 305 307 308 308 308 308 305 304 311 308 302 300 300 301 302 303 303 300 298 296 294 293 291 289 289 289 289 289 288 288 288 288 288 288 288 288 287 287 286 286
309 304 304 308 303 305 305 306 305 302 299 300 307 304 303 301 300 300 300 300 301 301 298 295 293 292 290 289 289 289 289 289 288 288 288 288 288 288 287 287 286 285 285 284
306 304 306 304 304 304 303 303 303 303 302 301 302 300 301 299 297 299 299 299 300 296 294 293 292 292 290 291 290 290 289 289 289 289 288 288 288 287 287 286 284 284 284 283
301 299 298 295 299 302 301 300 299 301 302 301 301 301 300 299 297 295 295 296 299 297 294 293 293 292 291 290 290 290 289 289 289 289 288 288 288 287 285 284 284 284 283 283
300 296 294 299 296 294 293 294 297 296 296 296 295 296 292 294 294 294 295 293 293 292 291 291 291 290 290 290 290 289 289 289 289 288 288 287 287 285 284 283 283 282 282 282
299 296 296 295 287 291 295 292 293 294 295 292 291 288 291 293 294 293 292 292 291 291 291 291 290 290 290 290 289 289 289 289 288 288 287 286 284 283 283 282 281 281 281 281
297 297 295 296 288 291 295 293 292 293 292 288 289 288 293 293 290 290 291 291 291 290 290 290 290 290 290 289 289 289 289 288 287 287 285 283 283 282 281 280 280 280 280 280
293 296 295 281 287 290 291 289 291 290 289 287 290 287 291 289 285 287 291 291 291 290 290 290 290 290 290 289 289 288 288 287 286 284 283 282 282 280 280 280 279 279 278 277
284 285 297 294 292 287 289 290 291 288 290 291 292 293 291 287 291 293 292 291 291 290 290 290 290 290 289 289 288 287 287 285 283 282 282 282 280 280 280 279 278 277 276 275
288 287 286 285 288 289 289 289 290 291 292 293 292 292 292 292 292 291 291 291 291 290 289 289 289 289 288 288 287 287 286 284 282 282 282 280 279 279 278 278 278 276 275 273
289 288 286 288 288 290 290 293 293 293 292 292 292 292 291 291 291 291 291 291 291 290 290 289 289 288 287 287 286 286 284 282 282 282 281 280 279 278 277 277 277 275 273 272
289 288 288 287 289 289 292 293 293 292 292 291 291 291 291 291 291 291 290 290 290 290 289 289 288 287 286 285 285 284 282 281 281 281 280 279 278 278 277 276 275 273 272 271
289 288 287 287 290 290 290 291 292 292 291 291 291 291 291 291 291 290 290 290 290 289 288 288 287 285 284 283 283 283 280 280 280 280 279 278 277 277 276 275 274 273 272 270
290 291 290 289 291 291 291 292 292 292 291 291 291 291 291 291 291 290 290 290 289 288 288 286 285 283 283 283 282 280 279 279 279 279 278 277 276 276 275 274 273 274 273 271
Wind_Speed
4 4 7 12 10 4 3 3 6 5 6 3 6 6 14 11 3 15 17 18 18 20 18 17 16 13 8 4 5 6 6 6 6 8 10 10 10 10 9 11 12 13 14 16
3 7 12 3 5 5 5 4 7 7 5 1 5 12 3 10 7 12 18 18 20 22 22 24 26 25 25 21 16 10 6 3 2 2 4 6 8 10 10 9 10 11 13 14
8 5 4 7 4 4 6 6 4 8 5 3 3 7 2 6 14 18 18 19 20 22 23 24 25 28 27 27 25 22 18 14 10 5 2 2 4 5 6 7 8 9 9 11
6 7 6 3 6 6 6 5 6 3 3 4 2 4 5 4 5 10 16 19 19 20 20 21 23 25 27 28 26 25 23 21 18 14 10 7 3 2 4 2 2 6 9 9
7 4 4 5 8 7 7 2 2 1 3 2 3 1 6 7 5 5 10 16 16 17 18 20 22 22 22 21 21 21 20 20 19 18 17 14 12 11 8 5 4 5 6 9
5 1 4 7 2 4 3 4 7 4 3 2 7 7 4 5 6 7 12 15 15 15 16 17 18 17 18 18 17 16 15 16 16 17 16 15 14 13 10 11 11 10 8 8
1 4 2 2 3 3 4 5 3 3 2 5 3 3 6 7 0 16 18 18 15 14 14 14 15 15 14 12 11 11 9 10 10 10 11 12 12 12 13 13 13 11 12 12
5 4 7 4 5 6 5 7 5 6 3 4 4 5 3 4 13 23 20 17 14 12 10 10 9 9 8 7 7 5 6 8 9 10 12 12 12 13 15 15 15 14 14 15
6 4 1 2 2 6 4 4 3 5 2 3 4 1 1 4 6 14 17 14 11 9 5 2 3 3 4 4 4 5 6 6 6 9 10 12 13 13 14 15 17 19 18 16
5 2 3 1 3 3 4 5 3 2 2 5 4 5 4 8 9 7 10 15 13 10 7 5 4 3 2 2 2 3 5 8 9 9 9 11 13 14 15 16 18 20 23 23
5 3 3 3 5 7 1 2 2 3 5 5 2 5 3 10 14 13 17 17 16 13 11 9 8 5 4 1 3 3 3 3 4 6 8 9 12 15 15 17 19 22 24 26
5 4 4 7 2 3 2 6 6 5 5 3 2 8 2 8 17 22 22 17 15 16 14 14 11 8 5 4 2 2 3 5 6 7 8 10 13 16 18 21 22 23 25 25
7 1 2 7 5 1 4 4 3 5 3 6 4 6 1 8 12 22 11 10 17 18 18 16 13 10 7 6 3 1 2 5 8 10 13 14 17 20 22 24 25 26 28 29
6 3 7 9 5 3 3 3 3 5 3 3 10 6 3 5 8 10 17 17 17 20 22 18 15 12 10 7 4 6 8 9 13 15 17 20 22 25 28 29 30 32 33 36
4 6 4 1 3 2 4 6 8 8 6 7 13 9 17 8 7 18 19 14 14 19 20 19 15 13 12 9 10 13 14 15 17 19 22 24 27 29 32 33 35 38 42 45
3 1 2 3 2 5 7 12 7 12 14 10 15 21 16 18 6 8 11 12 15 20 20 18 16 14 14 13 16 17 19 20 21 23 25 28 29 31 33 35 39 43 46 49
5 6 3 5 4 4 8 8 17 13 10 8 11 14 2 4 6 10 13 15 14 13 13 14 15 16 16 19 18 20 23 25 26 26 27 29 30 31 34 38 43 47 49 51
6 5 2 2 2 2 6 3 4 9 10 5 3 3 6 6 7 7 12 14 14 12 11 9 13 18 21 21 19 17 22 23 24 25 27 29 29 33 38 42 44 46 48 50
2 4 3 4 4 7 13 6 7 7 7 6 7 3 6 6 7 9 14 12 9 7 12 16 17 19 20 21 20 20 22 22 25 26 27 28 32 37 40 42 44 45 47 49
2 1 4 3 5 9 6 3 7 6 5 8 9 8 8 13 3 6 18 15 9 12 14 18 21 22 23 22 22 21 22 23 24 24 25 30 35 38 40 41 43 45 47 50
3 1 13 10 8 8 8 6 4 5 7 10 9 10 11 6 16 15 13 20 13 14 16 18 22 25 23 22 22 23 24 23 23 24 27 32 34 37 38 40 42 44 47 47
7 7 4 3 2 7 12 5 7 5 6 6 10 13 14 15 16 20 23 24 20 20 19 19 22 26 25 23 23 24 24 25 24 26 30 33 34 34 35 39 42 43 43 44
2 7 6 11 7 5 21 10 27 19 13 15 17 18 18 19 24 26 26 26 25 24 21 22 24 27 26 25 23 24 25 24 25 28 32 32 33 33 34 37 39 40 38 39
4 8 4 5 5 9 15 24 20 19 24 23 23 25 27 29 30 29 27 26 25 22 23 24 26 26 25 25 23 25 23 24 26 30 32 32 34 34 34 34 34 35 36 37
10 9 5 4 10 15 18 24 28 31 33 32 29 28 28 26 29 29 28 25 22 23 24 25 26 25 24 23 23 23 24 24 26 29 31 32 33 33 34 33 30 32 35 32
14 8 5 7 22 17 19 26 27 26 26 25 24 26 27 28 30 28 25 24 23 23 24 25 24 24 23 24 22 21 24 23 25 28 30 31 32 31 31 32 33 24 31 29
Wind_Direction
172 116 207 208 200 184 176 214 240 258 257 225 258 277 290 341 264 115 117 109 97 84 77 71 66 64 71 109 122 118 150 158 177 194 213 227 242 243 242 241 249 259 265 269
62 223 231 175 173 207 238 247 259 272 260 190 292 292 40 26 42 102 112 99 94 90 82 76 73 71 68 70 73 77 85 105 180 216 220 220 225 226 230 238 243 255 261 268
171 222 160 172 201 186 220 202 235 234 344 295 330 293 184 60 77 79 86 93 89 85 80 75 72 69 69 66 64 65 67 72 79 86 108 174 203 209 217 226 239 249 254 255
234 239 188 183 239 186 277 208 228 187 113 228 44 278 304 148 84 68 88 91 91 89 82 76 70 65 59 55 52 52 54 56 57 55 62 77 91 58 44 14 268 265 276 279
244 190 153 173 223 157 230 99 131 169 172 74 295 299 259 132 149 131 109 108 103 93 85 76 69 65 63 57 49 44 41 43 44 46 50 53 58 54 41 16 320 304 295 290
243 305 181 201 146 169 111 51 37 48 101 282 215 180 263 188 183 148 142 131 119 107 96 85 79 72 63 56 49 45 39 39 37 33 33 31 32 37 36 40 28 17 2 345
221 224 240 179 119 55 87 70 309 335 0 231 139 145 254 321 345 155 152 142 129 117 105 97 83 66 53 42 36 27 24 31 37 36 38 38 35 30 23 20 17 6 9 9
184 283 172 182 189 179 173 165 165 222 215 268 328 239 290 11 90 129 137 135 133 127 112 90 55 48 35 39 28 22 21 16 22 23 27 28 22 22 25 21 13 5 6 3
170 257 161 172 162 134 186 176 170 106 351 283 247 62 52 74 82 129 141 147 154 151 139 70 28 17 26 36 49 59 50 59 38 28 20 13 14 12 10 4 1 355 349 346
216 145 239 184 105 54 151 167 81 8 171 241 272 264 207 187 179 172 170 182 179 186 213 239 253 279 316 352 33 57 59 37 34 32 21 14 4 359 357 351 346 342 339 337
146 125 253 123 209 187 130 196 177 170 155 180 252 257 219 175 180 183 196 198 201 216 227 237 246 265 291 261 107 94 72 53 15 355 348 342 341 338 343 336 335 332 329 330
192 143 179 198 292 297 216 191 168 195 223 240 169 263 336 182 175 178 195 213 225 233 226 225 230 236 248 225 176 112 44 18 6 358 354 344 336 334 332 330 330 325 322 324
176 204 28 342 344 266 206 199 152 107 71 207 198 242 6 162 169 192 200 259 252 231 222 223 222 234 224 212 207 258 339 346 339 335 333 331 330 328 326 324 325 322 321 318
140 148 175 222 186 140 187 174 141 121 140 194 227 287 146 207 197 232 285 284 258 238 223 218 223 224 223 225 263 299 303 325 328 325 322 320 318 319 321 322 321 320 319 317
140 193 174 52 130 155 225 207 179 201 197 200 266 233 261 220 235 272 279 264 238 207 205 218 224 230 233 253 284 285 289 291 297 304 310 311 313 314 318 319 319 319 318 316
21 141 88 315 230 224 264 264 202 223 243 245 253 268 267 284 234 196 213 215 211 209 215 222 231 237 244 257 278 277 275 274 282 293 296 301 304 308 312 313 314 312 310 308
141 135 111 254 62 53 303 225 236 249 222 226 234 245 250 244 224 236 231 220 214 210 212 223 231 237 247 255 263 258 257 260 266 274 284 294 300 304 307 308 308 308 308 307
143 115 96 216 32 263 256 267 249 232 252 204 256 240 223 260 287 240 210 201 207 221 220 233 254 262 258 256 261 263 257 259 272 281 288 293 297 302 306 307 309 308 308 308
152 130 149 187 204 311 287 239 184 179 271 198 191 226 244 237 186 222 213 225 201 240 284 293 277 262 254 256 260 255 253 263 278 285 290 296 303 308 310 311 311 312 311 310
144 44 164 117 174 214 243 291 127 106 284 216 185 209 197 157 155 240 224 200 262 290 286 282 269 260 253 251 252 253 264 276 282 286 293 303 310 311 313 314 315 315 314 313
92 87 213 220 237 281 247 206 144 109 252 174 204 255 216 187 225 274 224 231 279 293 280 281 268 254 244 247 256 267 277 280 284 292 303 309 312 313 313 316 318 317 315 316
158 157 190 132 210 274 187 117 168 202 180 226 246 231 229 244 256 270 263 253 283 287 284 281 272 245 242 251 264 274 278 283 290 301 309 312 313 314 315 318 319 319 321 319
224 194 183 186 203 219 187 207 215 231 244 252 250 249 250 263 270 276 270 268 277 278 276 273 255 241 246 257 266 276 278 285 295 306 312 314 314 316 320 322 323 323 324 317
253 174 210 88 222 225 208 222 228 233 260 268 267 268 276 276 276 273 270 270 271 277 273 260 247 243 251 259 270 276 283 289 300 310 312 314 315 319 323 324 328 326 323 319
210 162 155 249 258 252 248 246 251 262 268 272 270 270 272 276 280 276 274 268 272 275 265 252 245 250 257 263 270 276 281 289 301 308 311 314 317 321 323 325 333 330 325 319
211 215 211 232 249 237 250 265 264 264 266 272 266 270 267 280 281 277 265 267 274 270 260 250 253 257 261 271 275 277 281 291 302 307 311 315 317 320 324 326 329 337 326 324